Location: Newark
(4.9000°N, 36.4333°E)
Time: 11:25:05
(UTC+00:00)

N. Korean satellite - Visible Passes

Search period start: 17 July 2019 00:00
Search period end: 27 July 2019 00:00
Orbit: 456 x 508 km, 97.2° (Epoch: 16 July)

Date Brightness Start Highest point End Pass type
(mag) Time Alt. Az. Time Alt. Az. Time Alt. Az.
17 Jul 8.6 02:50:02 10° NE 02:53:21 31° E 02:56:40 10° SSE visible
18 Jul 9.7 02:26:36 10° ENE 02:28:18 13° E 02:30:01 10° SE visible
21 Jul 9.0 02:43:17 10° NE 02:46:21 24° E 02:49:25 10° SSE visible
24 Jul 7.7 03:00:47 10° NNE 03:04:23 49° E 03:07:58 10° S visible
25 Jul 9.4 02:36:37 10° NE 02:39:19 19° E 02:42:00 10° SSE visible
